QPF
0.00 0.00 0.00 0.00 0.00 0.00 0.00 0.00 0.00 0.02 0.08 0.06 0.04 0.06 0.05 0.05 0.00 0.00 0.00 0.00 0.00 0.00 0.00 0.00 0.00 0.00 0.00 0.00 0.00 0.00 0.00 0.00 0.00 0.00 0.00 0.00 0.00 0.00 0.00 0.00 0.00 0.00 0.00
0.00 0.00 0.00 0.00 0.00 0.00 0.00 0.00 0.00 0.00 0.04 0.07 0.07 0.08 0.06 0.06 0.01 0.00 0.00 0.00 0.00 0.00 0.00 0.00 0.00 0.00 0.00 0.00 0.00 0.00 0.00 0.00 0.00 0.00 0.00 0.00 0.00 0.00 0.00 0.00 0.00 0.00 0.00
0.00 0.00 0.00 0.00 0.00 0.00 0.00 0.00 0.00 0.00 0.00 0.01 0.02 0.02 0.03 0.03 0.00 0.00 0.00 0.00 0.00 0.00 0.00 0.00 0.00 0.00 0.00 0.00 0.00 0.00 0.00 0.00 0.00 0.00 0.00 0.00 0.00 0.00 0.00 0.00 0.00 0.00 0.00
0.00 0.00 0.00 0.00 0.00 0.00 0.00 0.00 0.00 0.00 0.00 0.00 0.00 0.01 0.01 0.00 0.00 0.01 0.02 0.00 0.00 0.00 0.00 0.00 0.00 0.00 0.00 0.00 0.00 0.00 0.00 0.00 0.00 0.00 0.00 0.00 0.00 0.00 0.00 0.00 0.00 0.00 0.00
0.00 0.00 0.00 0.00 0.00 0.00 0.00 0.00 0.00 0.00 0.00 0.00 0.00 0.01 0.02 0.01 0.03 0.05 0.05 0.02 0.01 0.02 0.00 0.00 0.00 0.00 0.00 0.00 0.00 0.00 0.00 0.00 0.00 0.00 0.00 0.00 0.00 0.00 0.00 0.00 0.00 0.00 0.00
0.00 0.00 0.00 0.00 0.00 0.00 0.00 0.00 0.00 0.00 0.00 0.00 0.00 0.00 0.01 0.02 0.01 0.01 0.02 0.02 0.03 0.03 0.03 0.01 0.00 0.00 0.00 0.00 0.00 0.00 0.00 0.00 0.00 0.00 0.00 0.00 0.00 0.00 0.00 0.00 0.00 0.00 0.00
0.00 0.00 0.00 0.00 0.00 0.00 0.00 0.00 0.00 0.00 0.00 0.00 0.00 0.00 0.00 0.00 0.01 0.01 0.01 0.01 0.03 0.01 0.02 0.04 0.02 0.02 0.00 0.00 0.00 0.00 0.00 0.00 0.00 0.00 0.00 0.00 0.00 0.00 0.00 0.00 0.00 0.00 0.00
0.00 0.00 0.00 0.00 0.00 0.00 0.00 0.00 0.00 0.00 0.00 0.00 0.00 0.00 0.00 0.00 0.00 0.01 0.01 0.01 0.01 0.00 0.07 0.06 0.04 0.01 0.01 0.00 0.00 0.00 0.00 0.00 0.00 0.00 0.00 0.00 0.00 0.00 0.00 0.00 0.00 0.00 0.00
0.00 0.00 0.00 0.00 0.00 0.00 0.00 0.00 0.00 0.00 0.00 0.00 0.00 0.00 0.00 0.00 0.00 0.00 0.00 0.00 0.00 0.00 0.02 0.05 0.07 0.06 0.02 0.00 0.00 0.00 0.00 0.00 0.00 0.00 0.00 0.00 0.00 0.00 0.00 0.00 0.00 0.00 0.00
0.00 0.00 0.00 0.00 0.00 0.00 0.00 0.00 0.00 0.00 0.00 0.00 0.00 0.00 0.00 0.00 0.00 0.00 0.00 0.00 0.02 0.03 0.04 0.01 0.05 0.13 0.13 0.06 0.03 0.01 0.01 0.00 0.00 0.00 0.00 0.00 0.00 0.00 0.00 0.00 0.00 0.00 0.00
0.00 0.00 0.00 0.00 0.00 0.00 0.00 0.00 0.00 0.00 0.00 0.00 0.00 0.00 0.00 0.00 0.00 0.00 0.00 0.00 0.00 0.03 0.08 0.09 0.05 0.03 0.15 0.20 0.12 0.05 0.04 0.02 0.00 0.00 0.00 0.00 0.00 0.00 0.00 0.00 0.00 0.00 0.00
0.00 0.00 0.00 0.00 0.00 0.00 0.00 0.00 0.00 0.00 0.00 0.00 0.00 0.00 0.00 0.00 0.00 0.00 0.00 0.00 0.00 0.01 0.04 0.10 0.16 0.12 0.07 0.12 0.19 0.15 0.08 0.03 0.00 0.00 0.00 0.00 0.00 0.00 0.00 0.00 0.00 0.00 0.00
0.00 0.00 0.00 0.00 0.00 0.00 0.00 0.00 0.00 0.00 0.00 0.00 0.00 0.00 0.00 0.00 0.00 0.00 0.00 0.00 0.00 0.00 0.01 0.02 0.06 0.11 0.19 0.16 0.09 0.16 0.19 0.13 0.05 0.03 0.02 0.01 0.01 0.00 0.00 0.00 0.00 0.00 0.00
0.00 0.00 0.00 0.00 0.00 0.00 0.00 0.00 0.00 0.00 0.00 0.00 0.00 0.00 0.00 0.00 0.00 0.00 0.00 0.00 0.00 0.00 0.00 0.00 0.01 0.03 0.05 0.13 0.24 0.28 0.20 0.12 0.10 0.06 0.02 0.00 0.00 0.01 0.00 0.00 0.00 0.00 0.00
0.00 0.00 0.00 0.00 0.00 0.00 0.00 0.00 0.00 0.00 0.00 0.00 0.00 0.00 0.00 0.00 0.00 0.00 0.00 0.00 0.00 0.00 0.00 0.00 0.00 0.00 0.03 0.11 0.29 0.34 0.42 0.37 0.28 0.14 0.04 0.00 0.00 0.00 0.00 0.00 0.00 0.00 0.00
0.00 0.00 0.00 0.00 0.00 0.00 0.00 0.00 0.00 0.00 0.00 0.00 0.00 0.00 0.00 0.00 0.00 0.00 0.00 0.00 0.00 0.00 0.00 0.00 0.01 0.01 0.01 0.03 0.08 0.17 0.20 0.19 0.25 0.27 0.09 0.01 0.00 0.00 0.00 0.00 0.01 0.01 0.01
0.00 0.00 0.00 0.00 0.00 0.00 0.00 0.00 0.00 0.00 0.00 0.00 0.00 0.00 0.00 0.00 0.00 0.00 0.00 0.00 0.00 0.00 0.00 0.00 0.02 0.03 0.03 0.04 0.01 0.02 0.06 0.09 0.09 0.10 0.09 0.09 0.07 0.04 0.04 0.04 0.07 0.09 0.05
0.00 0.00 0.00 0.00 0.00 0.00 0.00 0.00 0.00 0.00 0.00 0.00 0.00 0.00 0.00 0.00 0.00 0.00 0.00 0.00 0.00 0.00 0.00 0.00 0.00 0.02 0.03 0.03 0.01 0.00 0.01 0.11 0.26 0.32 0.18 0.10 0.10 0.07 0.06 0.08 0.08 0.05 0.04
0.00 0.00 0.00 0.00 0.00 0.00 0.00 0.00 0.00 0.00 0.00 0.00 0.00 0.00 0.00 0.00 0.00 0.00 0.00 0.00 0.00 0.00 0.01 0.01 0.00 0.00 0.00 0.02 0.00 0.00 0.02 0.09 0.15 0.21 0.51 0.77 0.84 0.70 0.49 0.25 0.11 0.10 0.07
0.00 0.00 0.00 0.00 0.00 0.00 0.00 0.00 0.00 0.00 0.00 0.00 0.00 0.00 0.00 0.00 0.00 0.00 0.00 0.00 0.00 0.00 0.00 0.00 0.01 0.02 0.01 0.02 0.00 0.00 0.02 0.11 0.23 0.18 0.16 0.45 0.90 1.21 1.04 0.73 0.42 0.18 0.08
0.00 0.00 0.00 0.00 0.00 0.00 0.00 0.00 0.00 0.00 0.00 0.00 0.00 0.00 0.00 0.00 0.00 0.00 0.00 0.00 0.00 0.00 0.00 0.00 0.00 0.00 0.01 0.01 0.01 0.00 0.00 0.00 0.06 0.13 0.11 0.12 0.43 0.58 0.62 0.65 0.56 0.42 0.32
0.00 0.00 0.00 0.00 0.00 0.00 0.00 0.00 0.00 0.00 0.00 0.00 0.00 0.00 0.00 0.00 0.00 0.00 0.00 0.00 0.00 0.00 0.00 0.00 0.00 0.01 0.00 0.01 0.01 0.00 0.00 0.00 0.02 0.08 0.17 0.24 0.28 0.28 0.44 0.57 0.56 0.61 0.45
0.00 0.00 0.00 0.00 0.00 0.00 0.00 0.00 0.00 0.00 0.00 0.00 0.00 0.00 0.00 0.00 0.00 0.00 0.00 0.00 0.00 0.00 0.00 0.00 0.00 0.00 0.00 0.00 0.01 0.01 0.00 0.00 0.00 0.01 0.03 0.07 0.17 0.23 0.26 0.40 0.52 0.87 1.08
0.00 0.00 0.00 0.00 0.00 0.00 0.00 0.00 0.00 0.00 0.00 0.00 0.00 0.00 0.00 0.00 0.00 0.00 0.00 0.00 0.00 0.00 0.00 0.00 0.00 0.00 0.00 0.00 0.00 0.00 0.00 0.00 0.00 0.00 0.00 0.01 0.05 0.15 0.21 0.40 0.59 0.58 0.57
0.00 0.00 0.00 0.00 0.00 0.00 0.00 0.00 0.00 0.00 0.00 0.00 0.00 0.00 0.00 0.00 0.00 0.00 0.00 0.00 0.00 0.00 0.00 0.00 0.00 0.00 0.00 0.00 0.00 0.00 0.00 0.00 0.00 0.00 0.00 0.00 0.01 0.03 0.07 0.11 0.21 0.38 0.42
0.00 0.00 0.00 0.00 0.00 0.00 0.00 0.00 0.00 0.00 0.00 0.00 0.00 0.00 0.00 0.00 0.00 0.00 0.00 0.00 0.00 0.00 0.00 0.00 0.00 0.00 0.00 0.00 0.00 0.00 0.00 0.00 0.00 0.00 0.00 0.00 0.00 0.00 0.00 0.01 0.04 0.09 0.15
MSLP
1025.41 1024.61 1023.87 1022.68 1021.66 1021.00 1020.46 1019.72 1018.94 1018.33 1017.74 1016.56 1016.58 1016.66 1016.70 1016.70 1017.24 1017.65 1017.80 1018.25 1018.57 1018.89 1019.39 1019.82 1020.37 1020.71 1021.10 1021.65 1022.18 1022.71 1023.18 1023.55 1023.63 1024.11 1024.50 1024.52 1024.53 1024.72 1024.79 1024.97 1025.15 1025.19 1025.29
1025.58 1025.05 1024.25 1023.65 1022.75 1022.20 1021.48 1020.71 1019.87 1019.13 1018.35 1017.86 1016.76 1016.03 1016.21 1016.24 1016.33 1016.79 1017.32 1017.75 1018.21 1018.39 1018.53 1018.73 1019.27 1019.84 1020.45 1020.85 1021.41 1022.09 1022.87 1023.06 1023.27 1023.72 1024.26 1024.59 1024.57 1024.40 1024.43 1024.60 1024.74 1024.91 1025.04
1026.86 1026.17 1025.31 1024.55 1023.88 1022.87 1022.12 1021.38 1020.68 1019.73 1018.85 1018.26 1017.01 1015.92 1015.86 1015.90 1015.97 1016.21 1016.41 1016.54 1016.98 1017.53 1017.96 1018.29 1018.57 1019.02 1019.41 1019.98 1020.36 1020.98 1021.71 1022.45 1022.92 1022.64 1022.91 1024.15 1023.74 1023.83 1023.95 1024.06 1024.18 1024.54 1024.71
1027.28 1027.06 1026.34 1025.39 1024.69 1023.84 1022.84 1022.03 1021.08 1020.31 1019.39 1018.77 1017.74 1016.78 1015.64 1015.50 1015.24 1015.31 1015.58 1015.83 1016.25 1017.00 1017.61 1018.05 1018.30 1018.50 1018.71 1019.09 1019.43 1019.91 1020.49 1021.26 1021.88 1022.61 1021.90 1022.01 1022.31 1022.99 1023.71 1023.65 1023.67 1023.85 1024.07
1027.60 1027.24 1026.99 1026.33 1025.34 1024.45 1023.34 1022.47 1021.59 1020.68 1020.11 1019.30 1018.59 1017.89 1016.75 1015.54 1014.86 1015.01 1015.00 1015.46 1015.64 1015.85 1016.49 1017.00 1017.65 1018.02 1018.22 1018.48 1018.71 1019.20 1019.59 1020.00 1020.45 1020.87 1021.25 1021.76 1022.02 1022.12 1022.54 1023.07 1023.27 1023.49 1023.23
1027.56 1027.42 1027.05 1026.62 1025.78 1024.71 1023.78 1022.91 1022.03 1021.31 1020.43 1019.73 1018.96 1018.48 1017.73 1016.79 1015.76 1014.98 1014.85 1014.82 1015.04 1015.21 1015.44 1015.93 1016.42 1017.04 1017.42 1017.74 1017.74 1018.26 1018.84 1019.11 1019.50 1019.89 1020.16 1020.18 1020.75 1021.37 1021.83 1022.41 1022.64 1022.66 1022.66
1027.50 1027.42 1026.98 1026.68 1026.10 1025.26 1024.43 1023.23 1022.41 1021.80 1021.02 1020.21 1019.53 1018.95 1018.37 1017.65 1016.86 1016.03 1014.95 1014.57 1014.56 1014.51 1014.46 1014.78 1015.41 1015.71 1016.00 1016.48 1016.97 1017.56 1017.88 1018.18 1018.58 1018.89 1019.29 1019.60 1019.56 1020.00 1020.53 1021.17 1021.84 1022.17 1022.47
1027.66 1027.46 1026.98 1026.56 1026.27 1025.67 1024.95 1024.15 1022.81 1021.88 1021.33 1020.59 1019.97 1019.27 1018.76 1018.07 1017.34 1016.59 1015.66 1014.45 1013.66 1013.56 1013.66 1013.89 1014.14 1014.44 1014.88 1015.32 1015.80 1016.34 1016.82 1017.43 1017.73 1017.94 1018.28 1018.62 1018.86 1019.21 1019.49 1019.81 1020.87 1021.71 1022.05
1027.76 1027.37 1026.79 1026.42 1026.12 1025.65 1025.15 1024.44 1023.68 1022.58 1021.32 1020.98 1020.30 1019.63 1018.91 1018.46 1017.72 1016.78 1015.72 1014.88 1013.84 1012.94 1012.92 1013.02 1013.20 1013.38 1013.81 1014.26 1014.74 1015.17 1015.46 1016.16 1016.60 1017.07 1017.40 1017.61 1017.88 1018.35 1018.69 1018.88 1019.19 1019.62 1020.37
1027.76 1027.20 1026.69 1026.31 1025.74 1025.45 1025.08 1024.36 1023.66 1022.99 1022.25 1020.86 1020.52 1020.10 1019.35 1018.59 1017.97 1017.13 1016.11 1015.21 1014.22 1013.17 1012.26 1012.16 1012.46 1012.59 1012.70 1013.26 1013.68 1014.05 1014.36 1014.90 1015.31 1015.68 1016.21 1016.47 1016.66 1017.23 1017.65 1018.00 1018.35 1018.46 1018.71
1027.69 1027.20 1026.67 1026.08 1025.68 1025.27 1024.90 1024.37 1023.81 1023.14 1022.48 1021.76 1020.52 1020.06 1019.61 1018.80 1018.00 1017.28 1016.46 1015.49 1014.62 1013.71 1012.83 1011.96 1011.54 1011.72 1011.87 1012.18 1012.60 1012.81 1013.08 1013.70 1013.99 1014.36 1014.76 1014.95 1015.37 1015.77 1016.51 1016.93 1017.20 1017.60 1017.97
1027.59 1027.14 1026.65 1026.10 1025.61 1025.12 1024.66 1024.34 1023.89 1023.26 1022.59 1021.69 1021.04 1020.52 1019.86 1019.09 1018.22 1017.34 1016.44 1015.76 1014.84 1014.00 1013.12 1012.37 1011.78 1011.17 1011.09 1011.28 1011.47 1011.70 1011.90 1012.43 1012.59 1012.72 1013.32 1013.57 1014.22 1014.68 1014.90 1015.62 1015.87 1016.27 1016.63
1027.42 1027.12 1026.70 1026.14 1025.55 1024.97 1024.52 1024.14 1023.70 1023.09 1022.31 1021.79 1021.28 1020.67 1019.97 1019.26 1018.36 1017.27 1016.64 1015.99 1015.08 1014.20 1013.50 1012.70 1011.81 1011.39 1010.85 1010.41 1010.45 1010.38 1010.68 1011.15 1011.32 1011.43 1012.01 1012.32 1012.94 1013.15 1013.55 1013.92 1014.27 1014.66 1015.06
1027.21 1027.06 1026.64 1026.09 1025.52 1024.88 1024.34 1023.96 1023.50 1023.04 1022.57 1021.94 1021.25 1020.70 1020.17 1019.24 1018.25 1017.63 1016.96 1015.98 1015.24 1014.57 1013.87 1013.24 1012.23 1011.33 1010.92 1010.37 1009.83 1009.49 1010.13 1010.08 1010.09 1010.33 1010.67 1010.88 1011.16 1011.60 1011.85 1012.15 1012.26 1012.76 1013.56
1026.94 1026.62 1026.28 1025.79 1025.19 1024.61 1024.12 1023.83 1023.44 1022.97 1022.68 1022.27 1021.82 1021.24 1020.40 1019.61 1018.75 1018.07 1017.38 1016.49 1015.63 1014.76 1014.15 1013.60 1012.19 1011.34 1010.34 1009.95 1009.73 1009.63 1009.49 1008.42 1010.34 1009.81 1010.13 1010.01 1009.69 1009.97 1010.30 1010.65 1011.10 1011.34 1011.98
1026.69 1026.36 1025.92 1025.55 1025.25 1024.80 1024.27 1023.86 1023.61 1023.23 1022.73 1022.32 1021.79 1021.03 1020.08 1019.37 1018.75 1018.09 1017.32 1016.62 1015.92 1015.26 1014.69 1013.82 1012.50 1011.77 1010.99 1011.11 1009.79 1008.85 1008.58 1007.76 1008.65 1007.88 1009.38 1009.68 1008.74 1009.04 1009.07 1009.29 1009.38 1009.77 1010.10
1026.44 1026.25 1025.93 1025.59 1025.17 1024.82 1024.42 1024.04 1023.70 1023.28 1022.85 1022.45 1021.95 1021.33 1020.36 1019.50 1018.84 1018.17 1017.44 1016.56 1015.98 1015.45 1014.80 1013.62 1013.21 1012.45 1011.56 1011.68 1011.04 1009.91 1007.58 1006.47 1007.49 1008.41 1007.28 1006.97 1006.32 1007.83 1007.77 1007.92 1008.16 1008.62 1008.56
1026.15 1025.90 1025.60 1025.37 1025.01 1024.74 1024.45 1024.09 1023.70 1023.37 1023.00 1022.63 1022.10 1021.46 1020.89 1020.27 1019.48 1018.79 1018.21 1017.44 1016.31 1015.90 1015.27 1014.42 1013.77 1013.17 1012.40 1012.05 1011.27 1010.32 1008.79 1006.57 1005.51 1004.96 1004.66 1005.22 1004.54 1005.61 1006.65 1006.17 1006.46 1007.07 1007.44
1025.70 1025.50 1025.24 1025.05 1024.94 1024.78 1024.55 1024.15 1023.77 1023.54 1023.14 1022.64 1022.17 1021.63 1021.17 1020.65 1019.90 1019.27 1018.83 1017.98 1016.79 1015.80 1015.34 1015.00 1014.30 1013.63 1012.80 1012.19 1011.67 1010.67 1009.26 1007.46 1005.59 1004.88 1004.52 1004.27 1004.26 1004.54 1005.80 1003.49 1005.29 1005.14 1005.33
1025.40 1025.30 1025.05 1024.97 1024.85 1024.77 1024.50 1024.22 1023.93 1023.68 1023.27 1022.75 1022.31 1021.73 1021.23 1020.67 1020.23 1019.54 1019.02 1018.37 1017.20 1016.41 1015.65 1015.20 1014.69 1014.00 1013.23 1012.49 1012.09 1011.50 1010.45 1008.85 1007.17 1005.78 1005.01 1004.00 1003.23 1002.84 1003.55 1003.89 1004.51 1004.06 1003.29
1025.25 1025.16 1025.05 1025.01 1024.85 1024.77 1024.63 1024.47 1024.17 1023.80 1023.32 1022.75 1022.24 1021.80 1021.15 1020.75 1019.92 1019.41 1018.99 1018.32 1017.40 1016.71 1016.20 1015.54 1014.92 1014.25 1013.63 1012.73 1012.09 1011.58 1010.98 1010.24 1008.70 1007.05 1005.95 1004.33 1003.77 1003.22 1002.82 1003.46 1002.79 1003.01 1002.70
1025.18 1025.25 1025.27 1025.14 1024.96 1024.78 1024.76 1024.60 1024.26 1023.75 1023.29 1022.83 1022.36 1021.80 1021.23 1020.60 1019.78 1019.55 1019.12 1018.34 1017.56 1016.99 1016.37 1015.83 1015.21 1014.51 1013.69 1012.80 1011.94 1011.00 1010.41 1010.11 1009.33 1007.95 1007.07 1005.41 1004.21 1003.71 1003.03 1001.65 1001.44 1001.91 1001.82
1025.16 1025.29 1025.46 1025.36 1025.21 1025.07 1024.91 1024.61 1024.16 1023.77 1023.32 1022.88 1022.31 1021.72 1021.20 1020.38 1019.93 1019.60 1019.00 1018.39 1017.89 1017.35 1016.70 1016.15 1015.41 1014.40 1013.63 1012.90 1012.05 1011.14 1010.23 1009.59 1009.16 1008.19 1006.85 1005.88 1004.23 1003.68 1002.99 1002.10 1001.62 1001.87 1002.01
1025.12 1025.33 1025.48 1025.58 1025.52 1025.23 1024.94 1024.74 1024.21 1023.80 1023.34 1022.85 1022.23 1021.53 1021.09 1020.42 1019.96 1019.64 1019.17 1018.62 1018.14 1017.54 1016.97 1016.37 1015.71 1014.83 1013.91 1013.11 1012.21 1011.29 1010.22 1009.41 1008.60 1007.64 1006.34 1005.14 1004.50 1004.39 1004.07 1003.44 1002.39 1002.22 1001.22
1025.13 1025.36 1025.52 1025.59 1025.48 1025.24 1024.97 1024.54 1024.13 1023.75 1023.30 1022.77 1022.14 1021.39 1020.95 1020.47 1019.95 1019.50 1019.11 1018.72 1018.23 1017.77 1017.08 1016.47 1015.81 1015.01 1014.13 1013.41 1012.80 1011.95 1010.72 1009.76 1008.70 1007.87 1006.75 1005.40 1005.02 1004.87 1004.54 1003.57 1002.98 1002.79 1002.55
1025.06 1025.33 1025.40 1025.43 1025.29 1025.15 1024.83 1024.37 1023.96 1023.66 1023.29 1022.72 1022.00 1021.26 1020.72 1020.28 1019.78 1019.35 1018.78 1018.45 1017.85 1017.22 1016.63 1016.03 1015.57 1014.82 1014.08 1013.26 1012.44 1011.62 1010.71 1009.67 1008.46 1007.38 1006.83 1006.05 1005.57 1005.56 1004.85 1004.02 1004.16 1002.43 1002.05
Thickness
5564 5575 5581 5593 5607 5616 5628 5642 5653 5659 5668 5683 5686 5689 5691 5697 5696 5696 5699 5699 5701 5702 5701 5700 5698 5699 5699 5698 5695 5691 5688 5685 5687 5683 5680 5680 5680 5679 5679 5678 5676 5677 5676
5543 5548 5561 5568 5580 5591 5600 5616 5630 5641 5650 5661 5678 5689 5690 5692 5693 5692 5692 5694 5694 5698 5701 5703 5702 5700 5698 5697 5695 5692 5687 5685 5686 5682 5676 5673 5676 5679 5680 5679 5677 5676 5675
5508 5518 5530 5541 5552 5566 5577 5588 5606 5621 5634 5644 5662 5677 5683 5685 5688 5690 5692 5696 5697 5696 5696 5698 5699 5699 5698 5698 5697 5695 5691 5685 5683 5688 5684 5670 5676 5678 5680 5681 5680 5677 5676
5482 5490 5499 5515 5527 5539 5553 5564 5582 5598 5613 5623 5638 5655 5672 5676 5685 5689 5689 5691 5691 5688 5687 5686 5690 5694 5695 5697 5698 5696 5695 5689 5685 5682 5691 5691 5689 5680 5677 5681 5681 5680 5678
5464 5472 5478 5486 5502 5517 5531 5543 5558 5576 5590 5603 5615 5628 5646 5665 5676 5679 5683 5682 5686 5688 5685 5684 5684 5685 5688 5694 5695 5693 5694 5693 5691 5689 5687 5685 5685 5685 5683 5679 5680 5679 5682
5455 5457 5463 5470 5480 5497 5511 5524 5537 5551 5569 5582 5595 5606 5621 5637 5651 5667 5672 5674 5678 5682 5686 5686 5684 5683 5683 5686 5694 5692 5689 5691 5690 5689 5690 5693 5690 5684 5683 5679 5677 5681 5682
5451 5447 5453 5457 5466 5476 5490 5507 5520 5531 5547 5563 5573 5585 5597 5612 5627 5640 5657 5665 5669 5676 5683 5684 5685 5685 5686 5685 5685 5685 5687 5688 5688 5688 5687 5688 5693 5691 5687 5683 5676 5676 5676
5445 5443 5446 5449 5452 5461 5471 5483 5503 5516 5528 5543 5555 5566 5576 5592 5605 5621 5635 5652 5665 5672 5678 5678 5682 5687 5684 5683 5682 5683 5683 5681 5683 5685 5686 5686 5688 5689 5689 5687 5677 5669 5668
5441 5440 5444 5445 5446 5450 5458 5468 5480 5497 5514 5524 5537 5549 5559 5570 5586 5601 5619 5633 5649 5663 5669 5672 5674 5679 5681 5683 5683 5682 5683 5679 5680 5680 5681 5684 5686 5685 5685 5687 5686 5682 5677
5430 5437 5443 5443 5447 5447 5450 5457 5468 5479 5493 5511 5522 5531 5541 5552 5565 5582 5599 5614 5629 5645 5659 5665 5666 5669 5675 5676 5678 5680 5682 5677 5677 5679 5677 5680 5685 5682 5683 5683 5683 5682 5682
5424 5429 5435 5441 5443 5443 5446 5451 5457 5465 5477 5491 5506 5517 5526 5536 5548 5562 5576 5593 5608 5622 5636 5650 5660 5662 5666 5669 5669 5675 5679 5674 5677 5678 5678 5681 5683 5680 5679 5679 5680 5678 5677
5418 5422 5426 5432 5437 5441 5444 5446 5450 5456 5464 5476 5487 5497 5509 5521 5531 5544 5558 5573 5589 5603 5616 5628 5641 5653 5656 5661 5664 5666 5672 5672 5676 5681 5679 5683 5680 5678 5679 5677 5679 5678 5678
5411 5414 5418 5423 5429 5434 5439 5442 5445 5449 5458 5463 5468 5478 5491 5502 5516 5529 5539 5551 5567 5582 5594 5607 5621 5632 5641 5652 5656 5664 5666 5665 5670 5676 5675 5680 5677 5677 5680 5678 5679 5680 5680
5406 5406 5409 5413 5419 5425 5429 5433 5438 5441 5446 5451 5457 5463 5471 5485 5499 5510 5519 5532 5546 5561 5572 5582 5598 5613 5622 5632 5642 5655 5656 5659 5666 5671 5671 5676 5678 5678 5682 5682 5685 5683 5677
5406 5406 5407 5410 5413 5417 5420 5423 5425 5429 5432 5437 5441 5445 5454 5463 5477 5488 5500 5509 5523 5539 5552 5560 5578 5592 5607 5615 5625 5633 5639 5645 5644 5656 5657 5665 5675 5675 5682 5682 5680 5682 5676
5406 5406 5407 5408 5407 5410 5413 5415 5415 5416 5419 5423 5427 5435 5445 5453 5461 5470 5483 5493 5502 5513 5526 5541 5557 5568 5579 5583 5602 5619 5627 5643 5638 5634 5642 5651 5667 5668 5670 5674 5677 5680 5678
5401 5399 5399 5400 5401 5402 5404 5405 5408 5409 5411 5411 5414 5418 5427 5438 5447 5455 5466 5477 5485 5493 5503 5521 5530 5541 5555 5559 5572 5589 5618 5639 5630 5628 5649 5655 5667 5657 5664 5668 5669 5665 5671
5395 5394 5393 5392 5394 5395 5396 5397 5399 5401 5402 5404 5406 5408 5410 5415 5425 5435 5443 5453 5464 5469 5478 5491 5503 5515 5529 5535 5549 5565 5586 5616 5634 5646 5653 5653 5663 5656 5657 5669 5670 5665 5664
5389 5388 5386 5385 5385 5385 5386 5388 5390 5390 5392 5395 5397 5399 5399 5400 5407 5413 5420 5431 5443 5452 5459 5465 5475 5489 5504 5514 5525 5544 5564 5594 5616 5629 5636 5644 5651 5651 5647 5653 5656 5664 5665
5385 5383 5382 5378 5375 5374 5375 5379 5379 5380 5382 5385 5387 5389 5391 5393 5393 5398 5403 5409 5421 5428 5438 5445 5452 5463 5478 5492 5504 5517 5533 5561 5581 5600 5612 5622 5637 5643 5637 5632 5639 5652 5669
5382 5378 5375 5372 5369 5365 5364 5365 5367 5369 5372 5376 5378 5380 5383 5384 5389 5389 5390 5396 5403 5410 5416 5425 5433 5444 5455 5470 5481 5494 5509 5527 5549 5569 5584 5603 5612 5621 5625 5625 5637 5646 5641
5375 5369 5366 5364 5362 5359 5356 5355 5356 5359 5363 5365 5367 5370 5373 5376 5382 5380 5380 5385 5391 5395 5401 5406 5414 5424 5436 5447 5460 5476 5491 5505 5523 5544 5556 5575 5590 5599 5610 5625 5632 5630 5634
5367 5362 5357 5355 5352 5349 5348 5347 5348 5348 5351 5354 5358 5360 5363 5369 5371 5371 5374 5377 5378 5380 5385 5391 5399 5410 5419 5429 5438 5451 5470 5486 5501 5521 5537 5551 5571 5582 5594 5608 5613 5612 5617
5361 5355 5350 5345 5341 5340 5338 5337 5339 5339 5339 5342 5346 5351 5353 5358 5360 5361 5363 5366 5368 5371 5373 5377 5384 5394 5403 5412 5422 5433 5447 5465 5481 5500 5520 5538 5549 5554 5565 5575 5590 5592 5606
5353 5347 5342 5337 5333 5331 5329 5329 5329 5330 5330 5331 5333 5340 5342 5345 5349 5352 5354 5355 5358 5361 5365 5368 5371 5380 5389 5396 5403 5412 5425 5439 5457 5474 5492 5514 5525 5534 5542 5554 5563 5565 5572
5345 5340 5335 5331 5327 5323 5321 5321 5321 5320 5320 5322 5324 5328 5331 5333 5336 5339 5345 5346 5350 5354 5358 5363 5366 5371 5377 5385 5394 5401 5411 5422 5438 5454 5468 5484 5497 5504 5517 5529 5533 5550 5560